Deelen, Netherlands

5:09 PM CET on February 25, 2018 (GMT +0100)
Deelen Air Base

Weather History for EHDL - October, 2013

Change the Weather History Date:

Saturday, October 5, 2013

  Actual Average Record
Temperature  
Mean Temperature 56 °F -  
Max Temperature 66 °F 54 °F 68 °F (2005)
Min Temperature 46 °F 43 °F 37 °F (2003)
Degree Days  
Heating Degree Days 9    
Growing Degree Days 6 (Base 50)    
Moisture  
Dew Point 54 °F    
Average Humidity 92    
Maximum Humidity 100    
Minimum Humidity 68    
Precipitation  
Precipitation 0.00 in - - ()
Sea Level Pressure  
Sea Level Pressure 30.05 in    
Wind  
Wind Speed 3 mph ()    
Max Wind Speed 12 mph    
Max Gust Speed -    
Visibility 4.6 miles    
Events Fog    
Averages and records for this station are not official NWS values.
T = Trace of Precipitation, MM = Missing Value Source: Averaged Metar Reports

Daily Weather History Graph

Daily Weather History Graph

Search for Another Location

Airport or City:

Trip Planner

Search our weather history database for the weather conditions in past years. The results will help you decide how hot, cold, wet, or windy it might be!

Date:

Astronomy

Oct. 05, 2013 Rise Set
Actual Time 7:44 AM CEST 7:04 PM CEST
Civil Twilight 7:10 AM CEST 7:38 PM CEST
Nautical Twilight 6:31 AM CEST 8:17 PM CEST
Astronomical Twilight 5:51 AM CEST 8:57 PM CEST
Moon 8:13 AM CEST (10/5) 7:03 PM CEST (10/5)
Length of Visible Light 12h 27m
Length of Day
11h 20m
New Moon, 0% of the Moon is Illuminated
Oct 5
New Moon
Oct 12
First Quarter
Oct 19
Full
Oct 27
Last Quarter
Nov 3
New

Hourly Weather History & Observations

Time (CEST) Temp. Dew Point Humidity Pressure Visibility Wind Dir Wind Speed Gust Speed Precip Events Conditions
12:25 AM 57.2 °F 57.2 °F 100% 29.98 in 4.3 mi SE 2.3 mph - N/A   Overcast
12:55 AM 57.2 °F 57.2 °F 100% 29.95 in 4.3 mi SE 3.5 mph - N/A   Overcast
1:25 AM 57.2 °F 57.2 °F 100% 29.98 in - SSE 2.3 mph - N/A   Overcast
1:55 AM 57.2 °F 57.2 °F 100% 29.98 in - ESE 3.5 mph - N/A   Overcast
2:25 AM 57.2 °F 57.2 °F 100% 29.98 in - ESE 3.5 mph - N/A   Overcast
2:55 AM 57.2 °F 57.2 °F 100% 29.98 in 3.1 mi SE 3.5 mph - N/A   Overcast
3:25 AM 55.4 °F 55.4 °F 100% 29.98 in - SE 4.6 mph - N/A   Mist
3:55 AM 55.4 °F 55.4 °F 100% 29.98 in 0.5 mi ESE 2.3 mph - N/A Fog Fog
4:25 AM 53.6 °F 53.6 °F 100% 29.98 in 0.4 mi SE 1.2 mph - N/A Fog Fog
4:55 AM 53.6 °F 53.6 °F 100% 29.98 in 0.2 mi Calm Calm - N/A Fog Fog
5:25 AM 53.6 °F 53.6 °F 100% 29.98 in 0.8 mi Calm Calm - N/A   Overcast
5:55 AM 53.6 °F 53.6 °F 100% 29.98 in 0.9 mi SSE 1.2 mph - N/A   Overcast
6:25 AM 53.6 °F 53.6 °F 100% 29.98 in 3.7 mi NW 2.3 mph - N/A   Overcast
6:55 AM 53.6 °F 53.6 °F 100% 29.98 in - SE 2.3 mph - N/A   Overcast
7:25 AM 53.6 °F 53.6 °F 100% 29.98 in - East 2.3 mph - N/A   Overcast
7:55 AM 53.6 °F 53.6 °F 100% 29.98 in 3.1 mi Calm Calm - N/A   Overcast
8:25 AM 55.4 °F 55.4 °F 100% 30.01 in 4.3 mi SE 1.2 mph - N/A   Overcast
8:55 AM 57.2 °F 57.2 °F 100% 30.01 in 3.1 mi WNW 1.2 mph - N/A   Overcast
9:25 AM 57.2 °F 57.2 °F 100% 30.01 in 3.1 mi NE 1.2 mph - N/A   Overcast
9:55 AM 57.2 °F 57.2 °F 100% 30.01 in 3.1 mi West 3.5 mph - N/A   Overcast
10:25 AM 59.0 °F 57.2 °F 94% 30.01 in 3.1 mi NNW 3.5 mph - N/A   Overcast
10:55 AM 59.0 °F 59.0 °F 100% 30.04 in 3.1 mi NW 3.5 mph - N/A   Overcast
11:25 AM 60.8 °F 59.0 °F 94% 30.04 in 3.7 mi NNW 4.6 mph - N/A   Overcast
11:55 AM 60.8 °F 59.0 °F 94% 30.04 in 5.6 mi NNW 5.8 mph - N/A   Mostly Cloudy
12:25 PM 62.6 °F 57.2 °F 82% 30.04 in 6.2 mi NW 3.5 mph - N/A   Overcast
12:55 PM 62.6 °F 57.2 °F 82% 30.06 in 6.2 mi NW 4.6 mph - N/A   Overcast
1:25 PM 64.4 °F 57.2 °F 77% 30.06 in 6.2 mi West 4.6 mph - N/A   Overcast
1:55 PM 66.2 °F 59.0 °F 78% 30.06 in 6.2 mi NNW 3.5 mph - N/A   Scattered Clouds
2:25 PM 66.2 °F 57.2 °F 73% 30.06 in 6.2 mi NW 5.8 mph - N/A   Mostly Cloudy
2:55 PM 62.6 °F 57.2 °F 82% 30.06 in 6.2 mi NNW 10.4 mph - N/A   Mostly Cloudy
3:25 PM 62.6 °F 57.2 °F 82% 30.06 in 6.2 mi NNW 10.4 mph - N/A   Overcast
3:55 PM 64.4 °F 57.2 °F 77% 30.06 in 6.2 mi NNW 8.1 mph - N/A   Overcast
4:25 PM 64.4 °F 55.4 °F 73% 30.06 in 6.2 mi NNW 11.5 mph - N/A   Mostly Cloudy
4:55 PM 62.6 °F 51.8 °F 68% 30.09 in 6.2 mi NNW 9.2 mph - N/A   Overcast
5:25 PM 62.6 °F 51.8 °F 68% 30.09 in 6.2 mi NNW 10.4 mph - N/A   Overcast
5:55 PM 62.6 °F 51.8 °F 68% 30.09 in 6.2 mi North 10.4 mph - N/A   Overcast
6:25 PM 62.6 °F 51.8 °F 68% 30.12 in 6.2 mi NW 5.8 mph - N/A   Unknown
6:55 PM 59.0 °F 53.6 °F 82% 30.12 in 6.2 mi NW 5.8 mph - N/A   Unknown
7:25 PM 57.2 °F 51.8 °F 82% 30.12 in 6.2 mi NW 4.6 mph - N/A   Unknown
7:55 PM 55.4 °F 51.8 °F 88% 30.15 in 6.2 mi North 3.5 mph - N/A   Unknown
8:25 PM 51.8 °F 50.0 °F 94% 30.15 in 6.2 mi NNW 2.3 mph - N/A   Unknown
8:55 PM 50.0 °F 50.0 °F 100% 30.15 in 6.2 mi North 3.5 mph - N/A   Unknown
9:25 PM 48.2 °F 48.2 °F 100% 30.15 in 6.2 mi Calm Calm - N/A   Partly Cloudy
9:55 PM 48.2 °F 48.2 °F 100% 30.18 in 6.2 mi North 1.2 mph - N/A   Unknown
10:25 PM 46.4 °F 46.4 °F 100% 30.18 in 0.5 mi North 1.2 mph - N/A Fog Fog
10:55 PM 48.2 °F 46.4 °F 93% 30.18 in 6.2 mi Calm Calm - N/A   Overcast
11:25 PM 48.2 °F 48.2 °F 100% 30.18 in 6.2 mi Calm Calm - N/A   Overcast
11:55 PM 48.2 °F 48.2 °F 100% 30.21 in 6.2 mi North 1.2 mph - N/A   Overcast